[[{"header":{"parameterUnit":"m.s-1","parameterCategory":1,"la1":30.2992,"la2":30.254,"lo1":-89.0895,"lo2":-89.0443,"dy":0.0025,"dx":0.0025,"nx":19,"ny":19,"refTime":"2026-05-13T21:00:00:Z","depth":0,"parameterNumber":2,"parameterNumberName":"U-component_of_WINDS"},"data":[0,0,0,1.7628,1.7631,1.7808,1.7808,1.8042,1.8044,0,0,0,0,0,0,0,0,0,0,0,1.7575,1.7577,1.7627,1.7632,1.7807,1.7808,1.8042,1.8044,0,0,0,0,0,0,0,0,0,0,0,1.7575,1.7576,1.7578,1.7632,1.7807,1.7808,1.8041,1.7906,0,0,0,0,0,0,0,0,0,0,1.7734,1.7684,1.7576,1.7578,1.7633,1.7807,1.7808,1.79,1.7915,1.7964,0,1.8003,0,1.8027,1.806,1.8061,0,0,0,1.7633,1.7672,1.7719,1.7578,1.7635,1.7807,1.7728,1.7908,1.7925,1.7984,1.8007,1.8015,1.8031,1.8061,1.8062,1.8334,1.8335,0,0,1.7623,1.7608,1.7707,1.773,1.7698,1.7723,1.7734,1.7918,1.7944,1.8007,1.8021,1.8035,1.8063,1.8065,1.8333,1.8334,0,0,0,1.7594,1.7601,1.7644,1.7721,1.7751,1.7728,1.7741,1.7936,1.7951,1.8023,1.8038,1.8064,1.8067,1.8331,1.8333,1.8378,0,0,0,1.7589,1.7584,1.7639,1.7632,1.7748,1.7845,1.7754,1.7938,1.7959,1.8036,1.8064,1.8069,1.833,1.8332,1.8374,1.8403,0,0,0,1.7564,1.7581,1.7606,1.7631,1.7705,1.7842,1.7868,1.7943,1.7968,1.8061,1.807,1.8329,1.8332,1.837,1.8397,1.8472,0,0,0,1.7534,1.7643,1.7606,1.7735,1.7704,1.7866,1.7866,1.7989,1.8074,1.8065,1.833,1.8333,1.8369,1.8393,1.8468,1.8533,1.8558,0,0,1.7664,1.7658,1.7735,1.7708,1.7872,1.7841,1.8015,1.8108,1.8133,1.8267,1.8274,1.8375,1.8396,1.8471,1.87,1.8719,0,0,0,1.7772,1.7827,1.7874,1.7952,1.8025,1.8091,1.8159,1.8195,1.8309,1.8197,1.8422,1.8435,1.848,1.8512,1.8529,1.857,1.8346,1.8346,1.8346,1.7934,1.7958,1.8088,1.8135,1.8211,1.8282,1.8348,1.8409,1.8411,1.8465,1.8505,1.864,1.8677,1.869,1.8733,1.854,1.854,1.854,1.854,1.8128,1.8212,1.8213,1.834,1.8367,1.8476,1.8551,1.8549,1.8658,1.8611,1.8652,1.86,1.8711,1.875,1.8544,1.8543,1.8543,1.8542,1.8542,1.8239,1.8283,1.8323,1.8441,1.8531,1.8576,1.8681,1.8702,1.8723,1.8763,1.8811,1.881,1.8815,1.8784,1.8784,1.8785,1.8785,1.8785,1.8786,1.8339,1.8382,1.8465,1.8553,1.8608,1.8684,1.8759,1.8816,1.8885,1.8893,1.8893,1.8894,1.8715,1.8672,1.8793,1.8792,1.8791,1.879,1.879,1.853,1.8491,1.8619,1.8674,1.8782,1.8873,1.8898,1.9013,1.9064,1.9116,1.9109,1.8972,1.8969,1.8956,1.8921,1.91,1.91,1.91,1.91,1.8625,1.8625,1.8763,1.8851,1.894,1.8977,1.9129,1.919,1.9248,1.9282,1.926,1.9213,1.9199,1.9205,1.9187,1.9154,1.9388,1.9389,1.9389,1.8746,1.8756,1.8878,1.893,1.9017,1.9094,1.9238,1.9345,1.9402,1.9401,1.9311,1.9299,1.9224,1.9198,1.9195,1.9166,1.9106,0,0]},{"header":{"parameterUnit":"m.s-1","parameterCategory":1,"la1":30.2992,"la2":30.254,"lo1":-89.0895,"lo2":-89.0443,"dy":0.0025,"dx":0.0025,"nx":19,"ny":19,"refTime":"2026-05-13T21:00:00:Z","depth":0,"parameterNumber":3,"parameterNumberName":"V-component_of_WINDS"},"data":[0,0,0,-0.5079,-0.5075,-0.4892,-0.4891,-0.4646,-0.4643,0,0,0,0,0,0,0,0,0,0,0,-0.5128,-0.5126,-0.508,-0.5075,-0.4892,-0.4891,-0.4646,-0.4643,0,0,0,0,0,0,0,0,0,0,0,-0.5128,-0.5126,-0.5124,-0.5074,-0.4892,-0.4891,-0.4647,-0.4789,0,0,0,0,0,0,0,0,0,0,-0.4968,-0.5007,-0.5127,-0.5124,-0.5073,-0.4892,-0.4891,-0.4796,-0.478,-0.4724,0,-0.4673,0,-0.4654,-0.4626,-0.4625,0,0,0,-0.5079,-0.502,-0.4977,-0.5124,-0.5071,-0.4893,-0.4976,-0.4787,-0.4769,-0.4703,-0.467,-0.4661,-0.465,-0.4625,-0.4623,-0.4287,-0.4286,0,0,-0.5089,-0.5091,-0.4989,-0.4965,-0.4993,-0.4982,-0.497,-0.4776,-0.474,-0.4669,-0.4656,-0.4646,-0.4623,-0.4621,-0.4289,-0.4287,0,0,0,-0.5116,-0.5098,-0.5059,-0.4974,-0.4942,-0.4976,-0.4963,-0.4749,-0.4736,-0.4653,-0.4643,-0.4621,-0.4618,-0.4291,-0.4288,-0.42,0,0,0,-0.5122,-0.5113,-0.5063,-0.5063,-0.4946,-0.4843,-0.494,-0.475,-0.4728,-0.4645,-0.4621,-0.4616,-0.4293,-0.4289,-0.4207,-0.4157,0,0,0,-0.5142,-0.5116,-0.5087,-0.5063,-0.4985,-0.4847,-0.4823,-0.4745,-0.4721,-0.4625,-0.4615,-0.4294,-0.429,-0.4213,-0.4167,-0.4067,0,0,0,-0.5163,-0.5013,-0.5086,-0.4914,-0.4986,-0.4795,-0.4824,-0.4682,-0.4589,-0.462,-0.4293,-0.4288,-0.4214,-0.4173,-0.4073,-0.398,-0.3943,0,0,-0.4974,-0.499,-0.4889,-0.4949,-0.4745,-0.4823,-0.4605,-0.4518,-0.4508,-0.4361,-0.4353,-0.4204,-0.4168,-0.4068,-0.3738,-0.3708,0,0,0,-0.483,-0.4757,-0.4702,-0.4614,-0.4545,-0.448,-0.4427,-0.4395,-0.427,-0.4433,-0.4143,-0.4121,-0.4062,-0.4018,-0.3992,-0.3941,-0.4269,-0.4269,-0.427,-0.4563,-0.4558,-0.4389,-0.4361,-0.4275,-0.4222,-0.415,-0.4098,-0.4118,-0.405,-0.4005,-0.3805,-0.3753,-0.3734,-0.368,-0.3959,-0.3958,-0.3958,-0.3958,-0.4284,-0.4178,-0.4208,-0.4055,-0.405,-0.3921,-0.3864,-0.3882,-0.376,-0.3839,-0.3787,-0.3871,-0.3702,-0.3654,-0.3951,-0.3952,-0.3953,-0.3954,-0.3954,-0.4105,-0.4053,-0.4017,-0.3888,-0.3788,-0.3766,-0.3647,-0.3648,-0.3648,-0.3597,-0.3547,-0.3549,-0.3547,-0.3574,-0.3573,-0.3573,-0.3572,-0.3571,-0.3571,-0.3933,-0.3895,-0.3795,-0.3708,-0.3651,-0.3575,-0.352,-0.3462,-0.3399,-0.3409,-0.3408,-0.3433,-0.3688,-0.375,-0.356,-0.3562,-0.3563,-0.3564,-0.3565,-0.3645,-0.371,-0.3555,-0.3497,-0.3394,-0.3294,-0.3298,-0.3181,-0.3134,-0.3075,-0.3112,-0.3301,-0.3317,-0.3337,-0.3388,-0.3116,-0.3116,-0.3116,-0.3116,-0.3492,-0.3501,-0.3341,-0.3248,-0.3158,-0.3144,-0.2967,-0.2923,-0.2887,-0.2857,-0.2897,-0.2966,-0.2987,-0.299,-0.3018,-0.3065,-0.2717,-0.2716,-0.2716,-0.3313,-0.3313,-0.3162,-0.3128,-0.3047,-0.2978,-0.281,-0.2701,-0.2675,-0.27,-0.2833,-0.2849,-0.2961,-0.2998,-0.3023,-0.3066,-0.3153,0,0]}]]